Terminal Aerodrome Forecast
Issued by NWS Topeka, KS

Home | Current Version | Previous Version | Graphics & Text | Print | Product List | Glossary On
Versions: 1 2 3 4 5 6 7 8 9 10 11 12
000
FTUS43 KTOP 301100
TAFTOP
TAF
KTOP 301121Z 3012/3112 03003KT P6SM VCSH BKN070
     FM301500 04005KT P6SM BKN090=

USA.gov is the U.S. government's official web portal to all federal, state and local government web resources and services.